Flag for Germany Weather past 2 weeks in Mühlhausen/Thüringen, Thuringia, Germany

Now
66 °F

Partly sunny.


Feels Like: 66 °F
Forecast: 47 / 69 °F
Wind: 8 mph from West

Location: Erfurt-Bindersleben

Current Time: Jul 30, 2015 at 7:13:09 PM

Latest Report: Jul 30, 2015 at 6:00 PM


Visibility: 44 mi

Pressure: 29.94 "Hg

Humidity: 43%

Dew point: 42 °F

Location of Mühlhausen/ThüringenLocation

Historic Weather in Mühlhausen/Thüringen — Graph

°F

Mühlhausen/Thüringen temperature yesterday

Maximum temperature yesterday: 66 °F (at 3:00 PM)
Minimum temperature yesterday: 52 °F (at 6:00 AM)
Average temperature yesterday: 59 °F

Past Weeks' High & Low Weather Summary

 TemperatureHumidityPressure
High91 °F (Jul 17, 6:00 PM)100% (Jul 19, 7:00 AM)30.09 "Hg (Jul 19, 7:00 AM)
Low49 °F (Jul 30, 5:00 AM)26% (Jul 17, 4:00 PM)29.60 "Hg (Jul 25, 6:00 AM)
Average67 °F67%29.87 "Hg
* Reported Jul 15 6:00 PM — Jul 30 6:00 PM, Mühlhausen/Thüringen, Weather by CustomWeather, © 2015

Note: Actual official high and low records may vary slightly from our data, if they occured in-between our weather recording intervals... More about our weather records

Advertising

Mühlhausen/Thüringen weather history for previous 24 hours

 ConditionsComfort  
Time TempWeatherWind HumidityBarometerVisibility
6:00 PM
Thu, Jul 30
66 °FPartly sunny.8 mph43%29.94 "Hg43 mi
5:00 PM64 °FPartly sunny.9 mph48%29.94 "Hg37 mi
4:00 PM66 °FPartly sunny.7 mph43%29.93 "Hg43 mi
3:00 PM65 °FPartly sunny.8 mph40%29.93 "Hg43 mi
2:00 PM63 °FPartly sunny.7 mph48%29.94 "Hg43 mi
1:00 PM63 °FPartly sunny.8 mph48%29.93 "Hg37 mi
12:00 PM62 °FScattered clouds.8 mph50%29.93 "Hg31 mi
10:00 AM58 °FPartly sunny.9 mph63%29.93 "Hg31 mi
9:00 AM56 °FPartly sunny.9 mph69%29.93 "Hg31 mi
8:00 AM54 °FPassing clouds.8 mph74%29.92 "Hg31 mi
7:00 AM51 °FPassing clouds.7 mph78%29.92 "Hg37 mi
5:00 AM49 °FPassing clouds.6 mph78%29.91 "Hg37 mi
4:00 AM50 °FClear.6 mph76%29.91 "Hg37 mi
3:00 AM52 °FClear.7 mph73%29.90 "Hg37 mi
2:00 AM53 °FClear.8 mph71%29.88 "Hg37 mi
1:00 AM53 °FPassing clouds.6 mph73%29.88 "Hg37 mi
12:00 AM54 °FPassing clouds.7 mph66%29.87 "Hg37 mi
11:00 PM
Wed, Jul 29
55 °FPassing clouds.6 mph62%29.86 "Hg47 mi
10:00 PM56 °FPassing clouds.5 mph57%29.85 "Hg47 mi
9:00 PM59 °FScattered clouds.9 mph49%29.80 "Hg47 mi
8:00 PM62 °FPassing clouds.8 mph50%29.78 "Hg47 mi
7:00 PM63 °FPassing clouds.7 mph51%29.77 "Hg37 mi
Weather by CustomWeather, © 2015

See weather overviewHow to use our weather pages